Weather History for KCYS - October, 2013

Change the Weather History Date:

Tuesday, October 15, 2013

  Actual Average Record
Temperature  
Mean Temperature 30 °F 46 °F  
Max Temperature 37 °F 59 °F 80 °F (1958)
Min Temperature 23 °F 34 °F 17 °F (1966)
Degree Days  
Heating Degree Days 35 18  
Month to date heating degree days 288 243  
Since 1 July heating degree days 470 524  
Cooling Degree Days 0 0  
Month to date cooling degree days 0 0  
Year to date cooling degree days 520 348  
Moisture  
Dew Point 21 °F    
Average Humidity 69    
Maximum Humidity 81    
Minimum Humidity 56    
Precipitation  
Precipitation 0.00 in 0.03 in 1.19 in (1947)
Month to date precipitation 1.44 0.51  
Year to date precipitation 16.82 14.44  
Snow  
Snow 0.00 in 0.10 in 2.10 in (1948)
Month to date snowfall 4.7 2.0  
Since 1 July snowfall 4.7 3.3  
Snow Depth 0.00 in    
Sea Level Pressure  
Sea Level Pressure 30.29 in    
Wind  
Wind Speed 12 mph (NNW)    
Max Wind Speed 24 mph    
Max Gust Speed 31 mph    
Visibility 10 miles    
Events      
T = Trace of Precipitation, MM = Missing Value Source: NWS Daily Summary

Daily Weather History Graph

Daily Weather History Graph

Search for Another Location

Airport or City:

Trip Planner

Search our weather history database for the weather conditions in past years. The results will help you decide how hot, cold, wet, or windy it might be!

Date:

Astronomy

Oct. 15, 2013 Rise Set
Actual Time 7:11 AM MDT 6:18 PM MDT
Civil Twilight 6:43 AM MDT 6:45 PM MDT
Nautical Twilight 6:11 AM MDT 7:17 PM MDT
Astronomical Twilight 5:39 AM MDT 7:49 PM MDT
Moon 4:26 PM MDT (10/15) 3:34 AM MDT (10/15)
Length of Visible Light 12h 02m
Length of Day
11h 06m
Waxing Gibbous, 88% of the Moon is Illuminated
Oct 15
Waxing Gibbous
Oct 18
Full
Oct 26
Last Quarter
Nov 3
New
Nov 9
First Quarter

Hourly Weather History & Observations

Time (MDT) Temp. Windchill Dew Point Humidity Pressure Visibility Wind Dir Wind Speed Gust Speed Precip Events Conditions
12:53 AM 28.9 °F 19.8 °F 23.0 °F 78% 30.23 in 10.0 mi NNW 10.4 mph - N/A   Clear
1:53 AM 28.0 °F 19.3 °F 23.0 °F 81% 30.25 in 10.0 mi NNW 9.2 mph - N/A   Clear
2:53 AM 28.0 °F 18.1 °F 23.0 °F 81% 30.26 in 10.0 mi North 11.5 mph - N/A   Clear
3:18 AM 28.4 °F 16.6 °F 21.2 °F 74% 30.22 in 10.0 mi NNW 16.1 mph 19.6 mph N/A   Mostly Cloudy
3:53 AM 28.0 °F 16.1 °F 21.9 °F 78% 30.28 in 10.0 mi North 16.1 mph 20.7 mph N/A   Overcast
4:53 AM 28.0 °F 16.5 °F 21.9 °F 78% 30.27 in 10.0 mi North 15.0 mph 24.2 mph N/A   Overcast
5:53 AM 27.0 °F 14.3 °F 21.0 °F 78% 30.29 in 10.0 mi North 17.3 mph 24.2 mph N/A   Mostly Cloudy
6:53 AM 27.0 °F 15.6 °F 19.9 °F 75% 30.32 in 10.0 mi NNW 13.8 mph 20.7 mph N/A   Clear
7:53 AM 28.0 °F 15.3 °F 19.9 °F 72% 30.31 in 10.0 mi North 18.4 mph 26.5 mph N/A   Clear
8:53 AM 30.0 °F 18.3 °F 21.0 °F 69% 30.35 in 10.0 mi North 17.3 mph 29.9 mph N/A   Clear
9:53 AM 30.9 °F 19.1 °F 19.9 °F 64% 30.35 in 10.0 mi North 18.4 mph 25.3 mph N/A   Clear
10:38 AM 33.8 °F 22.5 °F 21.2 °F 60% 30.27 in 10.0 mi North 19.6 mph 28.8 mph N/A   Mostly Cloudy
10:53 AM 33.1 °F 22.2 °F 21.0 °F 61% 30.34 in 10.0 mi North 17.3 mph 28.8 mph N/A   Mostly Cloudy
11:53 AM 33.1 °F 23.0 °F 21.0 °F 61% 30.35 in 10.0 mi NNW 15.0 mph 20.7 mph N/A   Overcast
12:53 PM 34.0 °F 25.5 °F 21.0 °F 59% 30.32 in 10.0 mi NNW 11.5 mph 20.7 mph N/A   Overcast
1:53 PM 35.1 °F 26.4 °F 21.0 °F 57% 30.30 in 10.0 mi NNW 12.7 mph 19.6 mph N/A   Overcast
2:53 PM 35.1 °F 25.9 °F 21.0 °F 57% 30.28 in 10.0 mi North 13.8 mph - N/A   Overcast
3:53 PM 36.0 °F 27.5 °F 21.9 °F 57% 30.27 in 10.0 mi NNW 12.7 mph 19.6 mph N/A   Scattered Clouds
4:53 PM 36.0 °F 27.5 °F 21.0 °F 55% 30.26 in 10.0 mi NW 12.7 mph 23.0 mph N/A   Clear
5:53 PM 34.0 °F 25.0 °F 21.0 °F 59% 30.27 in 10.0 mi NNW 12.7 mph - N/A   Clear
6:53 PM 30.9 °F 22.2 °F 21.0 °F 67% 30.31 in 10.0 mi NNW 10.4 mph - N/A   Clear
7:53 PM 30.0 °F 23.2 °F 21.0 °F 69% 30.31 in 10.0 mi NNW 6.9 mph - N/A   Clear
8:53 PM 30.0 °F 22.4 °F 19.9 °F 66% 30.30 in 10.0 mi NNW 8.1 mph - N/A   Clear
9:53 PM 28.9 °F 21.9 °F 19.9 °F 69% 30.29 in 10.0 mi NW 6.9 mph - N/A   Clear
10:53 PM 26.1 °F 20.5 °F 21.0 °F 81% 30.27 in 10.0 mi WNW 4.6 mph - N/A   Clear
11:53 PM 26.1 °F 19.4 °F 21.0 °F 81% 30.26 in 10.0 mi WNW 5.8 mph - N/A   Clear